When you browse on this site, cookies collect data to enhance your experience and personalize the content and advertising you see.
Visit our Privacy Policy to learn more. By continuing to use the site, you agree to this use of cookies and data.
  • In Czech Republic
  • List of Countries
  • For 7 days
  • Water Temperature
  • Satellite Maps
  • Weather Map
  • Weather Widgets
  • user-avatar
    Login

    Hourly Weather Kumasi

    Today, 13 December, Thursday

    Time Temperature Precipitation Wind Pressure Humidity
    00:00 +29°C° 0.1 mm 2 mps 757 mmHg 73%
    01:00 +29°C° 0 mm 2 mps 757 mmHg 74%
    02:00 +28°C° 0 mm 2 mps 757 mmHg 75%
    03:00 +28°C° 0 mm 1 mps 757 mmHg 76%
    04:00 +28°C° 0 mm 1 mps 757 mmHg 78%
    05:00 +27°C° 0 mm 1 mps 757 mmHg 79%
    06:00 +25°C° 0 mm 0 mps 757 mmHg 80%
    07:00 +27°C° 0 mm 0 mps 758 mmHg 71%
    08:00 +30°C° 0 mm 0 mps 758 mmHg 62%
    09:00 +32°C° 0 mm 0 mps 758 mmHg 53%
    10:00 +35°C° 0 mm 1 mps 758 mmHg 46%
    11:00 +37°C° 0 mm 1 mps 758 mmHg 39%
    12:00 +39°C° 0 mm 2 mps 757 mmHg 32%
    13:00 +39°C° 0 mm 2 mps 757 mmHg 32%
    14:00 +39°C° 0 mm 3 mps 756 mmHg 33%
    15:00 +39°C° 0 mm 3 mps 755 mmHg 33%
    16:00 +37°C° 0 mm 4 mps 755 mmHg 40%
    17:00 +35°C° 0 mm 4 mps 755 mmHg 47%
    18:00 +33°C° 0 mm 4 mps 756 mmHg 54%
    19:00 +33°C° 0 mm 3 mps 756 mmHg 57%
    20:00 +31°C° 0 mm 3 mps 757 mmHg 61%
    21:00 +30°C° 0 mm 2 mps 757 mmHg 65%
    22:00 +30°C° 0 mm 2 mps 757 mmHg 66%
    23:00 +30°C° 0 mm 2 mps 757 mmHg 68%

    Tomorrow, 14 December, Friday

    Time Temperature Precipitation Wind Pressure Humidity
    00:00 +29°C° 0 mm 2 mps 757 mmHg 70%
    01:00 +29°C° 0 mm 2 mps 757 mmHg 72%
    02:00 +28°C° 0 mm 2 mps 757 mmHg 74%
    03:00 +28°C° 0 mm 1 mps 756 mmHg 76%
    04:00 +28°C° 0 mm 1 mps 757 mmHg 77%
    05:00 +27°C° 0 mm 1 mps 757 mmHg 78%
    06:00 +27°C° 0 mm 1 mps 757 mmHg 79%
    07:00 +29°C° 0 mm 1 mps 758 mmHg 70%
    08:00 +32°C° 0 mm 1 mps 758 mmHg 61%
    09:00 +34°C° 0 mm 1 mps 759 mmHg 52%
    10:00 +36°C° 0 mm 1 mps 758 mmHg 45%
    11:00 +39°C° 0 mm 2 mps 758 mmHg 39%
    12:00 +40°C° 0 mm 2 mps 757 mmHg 32%
    13:00 +40°C° 0 mm 2 mps 756 mmHg 33%
    14:00 +39°C° 0 mm 3 mps 756 mmHg 34%
    15:00 +40°C° 0 mm 4 mps 755 mmHg 35%
    16:00 +37°C° 0 mm 4 mps 755 mmHg 44%
    17:00 +35°C° 0 mm 4 mps 755 mmHg 53%
    18:00 +33°C° 0 mm 5 mps 756 mmHg 62%
    19:00 +32°C° 0 mm 4 mps 756 mmHg 65%
    20:00 +32°C° 0 mm 4 mps 757 mmHg 69%
    21:00 +30°C° 0 mm 4 mps 758 mmHg 72%
    22:00 +30°C° 0 mm 4 mps 757 mmHg 74%
    23:00 +30°C° 0 mm 3 mps 757 mmHg 76%

    Day after tomorrow, 15 December, Saturday

    Time Temperature Precipitation Wind Pressure Humidity
    00:00 +29°C° 0 mm 3 mps 757 mmHg 78%
    01:00 +29°C° 0 mm 3 mps 757 mmHg 80%
    02:00 +29°C° 0 mm 2 mps 757 mmHg 81%
    03:00 +28°C° 0 mm 2 mps 756 mmHg 83%
    04:00 +28°C° 0 mm 2 mps 757 mmHg 83%
    05:00 +28°C° 0 mm 2 mps 757 mmHg 84%
    06:00 +28°C° 0 mm 2 mps 757 mmHg 84%
    07:00 +29°C° 0 mm 2 mps 758 mmHg 76%
    08:00 +31°C° 0 mm 2 mps 758 mmHg 69%
    09:00 +32°C° 0 mm 2 mps 759 mmHg 62%
    10:00 +36°C° 0 mm 2 mps 758 mmHg 53%
    11:00 +37°C° 0 mm 1 mps 758 mmHg 45%
    12:00 +40°C° 0 mm 1 mps 757 mmHg 37%
    13:00 +40°C° 0 mm 2 mps 757 mmHg 36%
    14:00 +39°C° 0 mm 3 mps 756 mmHg 36%
    15:00 +39°C° 0 mm 3 mps 755 mmHg 35%
    16:00 +37°C° 0 mm 4 mps 755 mmHg 44%
    17:00 +35°C° 0 mm 4 mps 755 mmHg 54%
    18:00 +33°C° 0 mm 4 mps 756 mmHg 63%
    19:00 +32°C° 0 mm 4 mps 756 mmHg 67%
    20:00 +32°C° 0 mm 4 mps 757 mmHg 70%
    21:00 +30°C° 0 mm 4 mps 757 mmHg 73%
    22:00 +30°C° 0 mm 4 mps 757 mmHg 75%
    23:00 +30°C° 0 mm 3 mps 757 mmHg 76%

    16 December, Sunday

    Time Temperature Precipitation Wind Pressure Humidity
    00:00 +29°C° 0 mm 3 mps 757 mmHg 77%
    01:00 +29°C° 0 mm 3 mps 757 mmHg 79%
    02:00 +29°C° 0 mm 3 mps 756 mmHg 80%
    03:00 +28°C° 0 mm 3 mps 756 mmHg 82%
    04:00 +28°C° 0 mm 3 mps 756 mmHg 82%
    05:00 +28°C° 0 mm 3 mps 757 mmHg 83%
    06:00 +28°C° 0 mm 3 mps 757 mmHg 83%
    07:00 +30°C° 0 mm 3 mps 757 mmHg 76%
    08:00 +31°C° 0 mm 3 mps 758 mmHg 68%
    09:00 +34°C° 0 mm 3 mps 758 mmHg 61%
    10:00 +35°C° 0 mm 3 mps 758 mmHg 54%
    11:00 +37°C° 0 mm 2 mps 757 mmHg 47%
    12:00 +39°C° 0 mm 2 mps 757 mmHg 41%
    13:00 +39°C° 0.1 mm 3 mps 756 mmHg 40%
    14:00 +39°C° 0.1 mm 3 mps 755 mmHg 39%
    15:00 +39°C° 0.1 mm 3 mps 754 mmHg 38%
    16:00 +37°C° 0 mm 4 mps 755 mmHg 47%
    17:00 +35°C° 0 mm 4 mps 755 mmHg 55%
    18:00 +33°C° 0 mm 5 mps 755 mmHg 64%
    19:00 +32°C° 0 mm 5 mps 756 mmHg 68%
    20:00 +32°C° 0 mm 4 mps 757 mmHg 72%
    21:00 +30°C° 0 mm 4 mps 757 mmHg 76%
    22:00 +30°C° 0 mm 4 mps 757 mmHg 77%
    23:00 +30°C° 0 mm 4 mps 757 mmHg 79%

    17 December, Monday

    Time Temperature Precipitation Wind Pressure Humidity
    00:00 +29°C° 0 mm 3 mps 757 mmHg 80%
    01:00 +29°C° 0 mm 3 mps 756 mmHg 82%
    02:00 +29°C° 0 mm 3 mps 756 mmHg 83%
    03:00 +28°C° 0 mm 3 mps 756 mmHg 85%
    04:00 +28°C° 0 mm 3 mps 756 mmHg 85%
    05:00 +28°C° 0 mm 3 mps 756 mmHg 84%
    06:00 +28°C° 0 mm 3 mps 756 mmHg 84%
    07:00 +30°C° 0 mm 3 mps 757 mmHg 76%
    08:00 +31°C° 0 mm 3 mps 757 mmHg 69%
    09:00 +34°C° 0 mm 3 mps 758 mmHg 61%
    10:00 +35°C° 0.4 mm 3 mps 757 mmHg 57%
    11:00 +36°C° 0.4 mm 3 mps 757 mmHg 53%
    12:00 +36°C° 0.4 mm 2 mps 756 mmHg 49%
    13:00 +36°C° 0.4 mm 3 mps 756 mmHg 49%
    14:00 +36°C° 0.4 mm 3 mps 755 mmHg 49%
    15:00 +36°C° 0.4 mm 3 mps 755 mmHg 48%
    16:00 +35°C° 0.1 mm 4 mps 755 mmHg 53%
    17:00 +34°C° 0.1 mm 4 mps 755 mmHg 59%
    18:00 +33°C° 0.1 mm 4 mps 756 mmHg 64%
    19:00 +32°C° 0 mm 4 mps 756 mmHg 67%
    20:00 +30°C° 0 mm 3 mps 757 mmHg 70%
    21:00 +30°C° 0 mm 3 mps 757 mmHg 73%
    22:00 +30°C° 0 mm 3 mps 757 mmHg 75%
    23:00 +29°C° 0 mm 3 mps 757 mmHg 76%

    18 December, Tuesday

    Time Temperature Precipitation Wind Pressure Humidity
    00:00 +29°C° 0 mm 2 mps 756 mmHg 78%
    01:00 +29°C° 0 mm 2 mps 756 mmHg 79%
    02:00 +29°C° 0 mm 2 mps 756 mmHg 81%
    03:00 +28°C° 0 mm 2 mps 755 mmHg 83%
    04:00 +28°C° 0.8 mm 2 mps 756 mmHg 85%
    05:00 +28°C° 0.8 mm 2 mps 756 mmHg 87%
    06:00 +27°C° 0.8 mm 2 mps 756 mmHg 89%
    07:00 +29°C° 0.6 mm 2 mps 757 mmHg 80%
    08:00 +31°C° 0.6 mm 2 mps 757 mmHg 71%
    09:00 +33°C° 0.6 mm 3 mps 757 mmHg 62%
    10:00 +35°C° 0 mm 2 mps 757 mmHg 53%
    11:00 +38°C° 0 mm 2 mps 757 mmHg 45%
    12:00 +40°C° 0 mm 1 mps 756 mmHg 37%
    13:00 +39°C° 0 mm 2 mps 756 mmHg 40%
    14:00 +38°C° 0 mm 3 mps 755 mmHg 42%
    15:00 +36°C° 0 mm 3 mps 754 mmHg 45%
    16:00 +35°C° 0.1 mm 3 mps 755 mmHg 49%
    17:00 +34°C° 0.1 mm 4 mps 755 mmHg 54%
    18:00 +33°C° 0.1 mm 4 mps 755 mmHg 59%
    19:00 +32°C° 0 mm 4 mps 756 mmHg 62%
    20:00 +31°C° 0 mm 3 mps 756 mmHg 66%
    21:00 +30°C° 0 mm 3 mps 757 mmHg 70%
    22:00 +30°C° 0 mm 3 mps 757 mmHg 71%
    23:00 +30°C° 0 mm 3 mps 756 mmHg 73%
    Show more